Regional Weather Roundup
Issued by NWS

Home | Current Version | Previous Version | Graphics & Text | Print | Product List | Glossary On
Versions: 1 2 3 4 5 6 7 8 9 10 11 12 13 14 15 16 17 18 19 20 21 22 23 24 25 26 27 28 29 30 31 32 33 34 35 36 37 38 39 40 41 42 43 44 45 46 47 48 49 50
000
ASUS43 KTOP 250708
RWRKS

WEATHER ROUNDUP FOR KANSAS
NATIONAL WEATHER SERVICE GOODLAND KS
200 AM CDT THU MAY 25 2017

NOTE:  "FAIR" INDICATES FEW OR NO CLOUDS BELOW 12,000 FEET WITH NO
SIGNIFICANT WEATHER AND/OR OBSTRUCTIONS TO VISIBILITY.

KSZ001>006-013>018-027>032-041>047-250800-
NORTHWEST KANSAS

CITY           SKY/WX    TMP DP  RH WIND       PRES   REMARKS
GOODLAND       CLEAR     55  45  68 S20       29.56F
HAYS           CLEAR     52  45  77 S9        29.62F
HILL CITY      CLEAR     53  46  77 S8        29.61F
RUSSELL        CLEAR     52  45  77 SE16      29.61F
$$

KSZ061>065-074>080-084>089-250800-
SOUTHWEST KANSAS

CITY           SKY/WX    TMP DP  RH WIND       PRES   REMARKS
DODGE CITY     CLEAR     54  44  69 S17G26    29.64F
ELKHART          N/A     53  41  64 SE14        N/A
GARDEN CITY    CLEAR     55  43  63 S16       29.61F
GREAT BEND     CLEAR     52  45  77 SE14      29.63F
LIBERAL        CLOUDY    55  48  77 SE13      29.63F
PRATT          PTCLDY    50  42  73 SE8       29.66F
$$

KSZ066>073-081>083-090>101-250800-
SOUTHEAST KANSAS

CITY           SKY/WX    TMP DP  RH WIND       PRES   REMARKS
CHANUTE        CLEAR     50  46  86 CALM      29.71F
COFFEYVILLE    CLEAR     49  49 100 CALM      29.72S
HUTCHINSON     CLEAR     50  45  83 SE7       29.68S
MEDICINE LODGE   N/A     53  45  74 SE7       29.67F
NEWTON         CLEAR     49  45  86 SE7       29.69F
PARSONS        CLEAR     47  46  97 CALM      29.73S
WICHITA INTL   CLEAR     48  44  86 S7        29.69F
WICHITA JABRA  CLEAR     49  43  80 S8        29.69F
WICHITA MCCONL CLEAR     53  43  67 SE6       29.69F
WINFIELD       PTCLDY    50  44  80 SE3       29.71F
$$

KSZ007>012-019>026-033>040-048>060-102>105-250800-
NORTHEAST KANSAS

CITY           SKY/WX    TMP DP  RH WIND       PRES   REMARKS
CONCORDIA      CLEAR     50  45  83 S8        29.65F
EMPORIA        CLEAR     48  46  93 S6        29.70S
LAWRENCE       CLEAR     47  47 100 CALM      29.70S
MANHATTAN      CLEAR     46  45  96 CALM      29.67F
MARYSVILLE     CLEAR     50  45  81 CALM      29.68S
OLATHE IND     CLEAR     50  48  93 SE3       29.70F
OLATHE EXE     CLEAR     48  48 100 CALM      29.70S
SALINA         CLEAR     51  45  79 S9        29.66F
TOPEKA BILLARD CLEAR     51  51 100 CALM      29.69F
TOPEKA FORBES  CLEAR     48  46  93 CALM      29.69F
$$




USA.gov is the U.S. government's official web portal to all federal, state and local government web resources and services.